www.pogodaiklimat.ru

Погода и климат >> Архив погоды >> Россия >> Дагестан >> Дербент


ПОГОДА в Дербенте

АРХИВ ПОГОДЫ в Дербенте

Время (UTC), дата Ветер
(напр.,м/с)
 
Видим.   Явления Облачность Т
(С)
Тd
(С)
f
(%)
Тe
(С)
Тes
(С)
Комфортность P
(гПа)
Po
(гПа)
Тmin
(С)
Tmax
(С)
R
(мм)
R24
(мм)
S
(см)
03 14.10 Ю 1 10 км ясно +11.5 +6.3 70 +11 +11 прохладно 1017.2 1019.4 +11.4
06 14.10 Ю 2 20 км 9/4 600 м
[Sc Ac trans]
+16.7 +10.0 65 +17 +18 по сезону 1016.7 1018.8
09 14.10 С 2 20 км 9/6 600 м
[Sc Ac trans]
+18.6 +12.9 69 +20 +22 тепло 1014.3 1016.4
12 14.10 С 4 20 км 4/0
[Ac trans]
+20.5 +12.8 61 +23 +24 комфорт 1012.4 1014.5
15 14.10 С 3 10 км 9/4 300 м
[Cb cap Ac trans]
+18.1 +14.3 78 +18 +18 тепло 1012.6 1014.8 +21.2
18 14.10 СЗ 4 10 км 9/6 600 м
[Sc Ac trans]
+17.4 +13.4 77 +17 +17 тепло 1012.9 1015.0
21 14.10 СЗ 3 10 км 4/0
[Ac trans]
+16.9 +11.2 69 +17 +17 тепло 1012.8 1015.0
00 15.10 СЗ 2 10 км 9/9 600 м
[Sc]
+16.2 +9.7 65 +16 +16 тепло 1011.8 1014.0
03 15.10 СЗ 2 10 км 9/8 600 м
[Sc Ac trans]
+16.1 +9.3 64 +16 +16 тепло 1012.9 1015.1 +15.9
06 15.10 СЗ 5-14
{14}
20 км 10/10 300 м
[Cb cap]
+15.2 +10.7 74 +14 +14 по сезону 1014.7 1016.8 +15.2
09 15.10 СЗ 4-12
{14}
20 км 9/9 300 м
[Cb cap]
+16.8 +10.5 66 +16 +17 по сезону 1015.1 1017.2
12 15.10 СЗ 4
{11}
20 км 10/10 300 м
[Cb cap]
+15.3 +7.7 60 +14 +14 прохладно 1015.7 1017.8
15 15.10 З 1 10 км 9/9 300 м
[Cb cap]
+14.1 +6.2 59 +15 +15 по сезону 1016.4 1018.5 +16.8
18 15.10 ЮЗ 1 10 км 3/0
[Ac trans]
+13.2 +6.2 62 +14 +14 по сезону 1015.4 1017.6
21 15.10 Ю 1 10 км 9/9 600 м
[Sc]
+11.6 +5.1 64 +12 +12 по сезону 1012.7 1014.9
00 16.10 З 1 10 км 10/10 600 м
[Sc]
+12.5 +6.0 65 +13 +13 по сезону 1011.2 1013.4
03 16.10 Ю 3 10 км 10/10 600 м
[Sc]
+13.3 +4.7 56 +12 +12 прохладно 1007.5 1009.6 +11.3
06 16.10 СЗ 2 20 км 10/10 600 м
[Sc]
+15.8 +7.4 57 +16 +16 по сезону 1009.3 1011.4
09 16.10 С 4-12
{15}
20 км 8/4 600 м
[Sc Ac trans Ci fib]
+17.8 +4.0 40 +18 +20 тепло 1008.8 1011.0
12 16.10 З 3
{11}
20 км 10/10 300 м
[Cb cap]
+16.2 +2.7 40 +16 +16 по сезону 1009.7 1011.8
15 16.10 С 4-12
{12}
10 км 10/10 300 м
[Cb cap]
+14.8 +4.9 51 +14 +14 по сезону 1012.3 1014.5 +17.9
18 16.10 СЗ 5-15
{15}
10 км 9/8 300 м
[Cb cap Ac trans]
+12.8 +1.6 46 +11 +11 прохладно 1015.1 1017.3
21 16.10 СЗ 5-12
{15}
10 км 6/0
[Ac trans]
+10.6 +1.2 52 +8 +8 холодно 1016.4 1018.6
00 17.10 СЗ 3
{11}
10 км 8/0
[Ac trans]
+10.4 +0.4 50 +9 +9 прохладно 1016.0 1018.2
03 17.10 СЗ 3 10 км 6/0
[Ac trans]
+9.6 +2.2 60 +8 +8 холодно 1018.0 1020.2 +9.6
06 17.10 СЗ 3 20 км ясно +14.0 -0.1 38 +13 +16 прохладно 1019.1 1021.3 +9.5
09 17.10 ЮВ 3 н/о н/о +16.3 +2.7 40 +16 +16 по сезону 1018.6 1020.7
12 17.10 СВ 3 20 км 8/8 600 м
[Cu med, cong]
+16.5 +3.6 42 +16 +17 по сезону 1018.3 1020.4
15 17.10 Ю 2 10 км 8/8 300 м
[Cb cap]
+15.0 +5.8 54 +15 +15 по сезону 1019.4 1021.6 +17.6
18 17.10 Ю 2 4000 м слабый ливневой дождь 10/10 300 м
[Cb cap]
+12.8 +7.9 72 +12 +12 по сезону 1020.9 1023.1
21 17.10 ЮЗ 1 10 км {ливн. осадки} 10/10 600 м
[Sc]
+14.3 +5.2 54 +15 +15 тепло 1019.4 1021.6
00 18.10 З 1 10 км {ливн. осадки} 10/10 600 м
[Sc]
+12.1 +5.8 65 +12 +12 по сезону 1018.9 1021.1
03 18.10 З 1 10 км 10/10 300 м
[Cb cap]
+14.6 +8.1 65 +15 +15 по сезону 1021.7 1023.9 +11.9 0.3
06 18.10 В 1 20 км 9/9 300 м
[Cb cap]
+15.8 +10.5 71 +17 +17 тепло 1024.4 1026.5
09 18.10 СЗ 2 20 км 10/10 600 м
[Sc]
+15.9 +10.0 68 +16 +16 по сезону 1025.2 1027.4
12 18.10 С 3 20 км 9/5 600 м
[Sc Ac trans]
+17.8 +10.2 61 +18 +19 тепло 1025.0 1027.2
15 18.10 штиль 0 10 км 10/10 600 м
[Sc]
+15.4 +10.5 73 +15 +15 по сезону 1025.6 1027.8 +18.2
18 18.10 Ю 1 10 км 9/5 600 м
[Sc Ac trans]
+14.1 +9.5 74 +14 +14 по сезону 1025.7 1027.9
21 18.10 Ю 1 10 км 9/9 600 м
[Sc]
+12.8 +9.2 79 +13 +13 по сезону 1025.1 1027.3
00 19.10 Ю 1 10 км 4/0
[Ac trans]
+10.0 +7.9 87 +10 +10 по сезону 1023.9 1026.1
03 19.10 Ю 2 10 км ясно +13.1 +9.5 79 +12 +12 по сезону 1023.7 1025.9 +10.0
06 19.10 В 2 20 км 3/3 600 м
[Cu hum]
+18.3 +11.4 64 +19 +22 тепло 1023.8 1026.0
09 19.10 СЗ 2 20 км 4/4 600 м
[Cu hum]
+20.3 +12.3 60 +23 +27 комфорт 1022.4 1024.5
12 19.10 С 4 20 км ясно +18.8 +12.9 69 +20 +21 тепло 1020.6 1022.7
15 19.10 СЗ 2 10 км ясно +15.6 +12.1 80 +16 +16 тепло 1020.4 1022.6 +20.5
18 19.10 З 2 10 км 8/8 600 м
[Sc]
+15.0 +12.1 83 +15 +15 тепло 1020.4 1022.6
21 19.10 СЗ 1 10 км 8/0
[Ac trans]
+14.4 +11.6 83 +15 +15 тепло 1019.5 1021.7
00 20.10 З 1 10 км 8/0
[Ac trans]
+11.8 +9.9 88 +12 +12 по сезону 1019.2 1021.4
03 20.10 З 1 10 км 8/0
[Ac trans]
+11.3 +8.7 84 +11 +11 прохладно 1019.5 1021.7 +11.1
06 20.10 СЗ 1 20 км ясно +18.0 +9.5 58 +19 +23 тепло 1020.2 1022.3 +11.0
09 20.10 С 2 20 км ясно +18.6 +12.4 67 +20 +27 тепло 1019.2 1021.4
12 20.10 ЮВ 2 20 км ясно +17.5 +12.0 70 +18 +20 тепло 1018.9 1021.0
15 20.10 Ю 1 10 км ясно +15.0 +11.0 77 +16 +16 по сезону 1019.1 1021.3 +20.0
18 20.10 З 1 10 км ясно +13.1 +9.0 76 +13 +13 по сезону 1019.3 1021.5
21 20.10 СЗ 1 10 км ясно +11.6 +8.4 81 +11 +11 по сезону 1018.7 1020.9
00 21.10 З 1 10 км ясно +11.5 +8.7 83 +11 +11 по сезону 1017.9 1020.1

 

Местоположение метеостанции Дербент (Дагестан, Россия): широта 42.07 долгота 48.30 высота над уровнем моря -17 м.

В архиве по умолчанию представлена погода в Дербенте за последнюю неделю. Архивные данные за месяц целиком и за предыдущие месяцы, начиная с января 2011 года, Вы можете получить, выбрав интересующий диапазон дат из раскрывающегося списка и нажав кнопку "Ввод!".

Внимание! Время в таблицах - всемирное. Для получения местного времени необходимо прибавить поправку, которая в Дербенте равна 3 ч.

Смотрите также архив погоды в соседних городах и на ближайших метеорологических станциях:

Погода в Касумкенте (Дагестан, Россия) (46 км)
Погода в Изберге (Дагестан, Россия) (60 км)
Погода в Сергокале (Дагестан, Россия) (67 км)
Погода в Губе (Азербайджан) (80 км)
Погода в Ахты (Дагестан, Россия) (81 км)
Погода в Кумухе (Дагестан, Россия) (98 км)
Погода в Куппе (Дагестан, Россия) (107 км)
Погода в Гунибе (Дагестан, Россия) (116 км)
Погода в Махачкале (Дагестан, Россия) (125 км)
Погода в Габале (Азербайджан) (126 км)

Пояснения к столбцам:

Ветер - указаны скорость ветра в м/с - средняя за 10 мин, порывы в срок и между сроками (в фигурных скобках) и направление, откуда дует ветер: С - северный, СВ - северо-восточный, В - восточный, ЮВ - юго-восточный, Ю - южный, ЮЗ - юго-западный, З - западный, СЗ - северо-западный.
Видимость - горизонтальная дальность видимости в метрах или километрах. При видимости от 1 до 10 км при отсутствии осадков обычно наблюдается дымка, при ухудшении видимости до 1 км и менее - туман. В сухую погоду видимость может ухудшаться дымом, пылью или мглою.
Явления - указаны атмосферные явления, наблюдавшиеся в срок или в последний час перед сроком; фигурными скобками обозначены явления, наблюдавшиеся между сроками (за 1-3 часа до срока); квадратными скобками обозначены град или гололедные отложения с указанием их диаметра в мм.
Облачность - указаны через наклонную черту общая и нижняя облачность в баллах и высота нижней границы облаков в метрах; квадратными скобками обозначены формы облаков: Ci - перистые, Cs - перисто-слоистые, Cc - перисто-кучевые, Ac - высококучевые, As - высокослоистые, Sc - слоисто-кучевые, Ns - слоисто-дождевые, Cu - кучевые, Cb - кучево-дождевые. Подробнее классификацию облаков см. в Атласе облаков (PDF).
T - Температура воздуха - температура, измеренная на высоте 2 м над землей.
Td - Температура точки росы - температура, при понижении до которой содержащийся в воздухе водяной пар достигнет насыщения.
f - Относительная влажность воздуха - влажноcть воздуха, измеренная на высоте 2 м над землей.
Te - Эффективная температура - температура, которую ощущает одетый по сезону человек в тени. Характеристика душности погоды. При расчете учитывается влияние влажности воздуха и скорости ветра на теплоощущения человека.
Tes - Эффективная температура на солнце - температура, которую ощущает человек, с поправкой на солнечный нагрев. Характеристика знойности погоды. Зависит от высоты солнца над горизонтом, облачности и скорости ветра. Ночью, в пасмурную погоду, а также при ветре 12 м/с и более поправка равна нулю.
P - Атмосферное давление - приведенное к уровню моря атмосферное давление.
Po - Атмосферное давление - измеренное на уровне метеостанции атмосферное давление.
Tmin - Минимальная температура - минимум температуры воздуха на высоте 2 м над землей.
Tmax - Максимальная температура - максимум температуры воздуха на высоте 2 м над землей.
R - Количество осадков - Количество выпавших осадков за период времени, мм. При наведении курсора мыши на число - период времени, за который выпало указанное количество осадков.
R24 - Количество осадков - Количество выпавших осадков за 24 часа, мм.
S - Снежный покров - Высота снежного покрова, см. При наведении курсора мыши на число - состояние снежного покрова и степень покрытия местности в баллах.